Torna al catalogo

STARLINK-5300

AttivoComunicazioniVLEO
NORAD 55676·PAYLOAD·🇺🇸 United States

Lanciato Feb 17, 2023 da Vandenberg Space Force Base

Loading…

Prossimi Passaggi (prossime 24 ore)

TLE

AggiornatoSource: CelesTrak SupGP

Epoca: Sep 15, 2026, 01:35 UTC

1 55676C 23021BA  26258.06645833 -.00028543  00000+0 -23928-2 0  2582
2 55676  70.0031  27.0061 0003008 271.4698  87.7941 14.98332492    18

Traccia STARLINK-5300 in tempo reale con AllMySat

Download on the App Store